Location: ??????
(56.0120°N, 39.1740°E)
Time: 21:29:50
(UTC+00:00)

Cosmos 1605 Rocket - Pass Details

Date: 14 April 2026
Orbit: 945 x 1004 km, 82.9° (Epoch: 11 May)

Event Time Altitude Azimuth Distance (km) Brightness Sun altitude
Exits shadow 20:17:09 36° 207° (SSW) 1,447 4.5 -22.9°
Maximum altitude 20:19:44 74° 284° (WNW) 991 4.0 -23.0°
Drops below altitude 10° 20:25:54 10° 9° (N) 2,694 7.2 -23.3°
Sets 20:28:25 0° 12° (NNE) 3,650 8.0 -23.3°
